Flight Track Log - Related Links

Times and Time Zones

All times are in EDT time to prevent confusion due to time zone crossing. See the SWA34 flight status page for this flight to view local times or setup timezone preferences in your user account.

Time Position Orientation Groundspeed Altitude Reporting Facility
EDT Latitude Longitude Course Direction KTS MPH feet Rate Location/Type
Tue 06:30:47 PM 36.1958 -95.9694 273° West 221 254 3,700  Level Kansas City Center
Tue 06:31:14 PM 36.1992 -95.9914 281° West 211 243 5,000 3,640 Climbing Kansas City Center
Tue 06:32:16 PM 36.2650 -95.9789 North 259 298 9,100 2,952 Climbing Kansas City Center
Tue 06:33:18 PM 36.3036 -95.8861 63° Northeast 298 343 11,100 2,565 Climbing Kansas City Center
Tue 06:34:20 PM 36.3483 -95.7811 62° Northeast 336 387 14,400 2,710 Climbing Kansas City Center
Tue 06:35:22 PM 36.3936 -95.6756 62° Northeast 355 409 16,700 2,419 Climbing Kansas City Center
Tue 06:36:24 PM 36.4425 -95.5592 62° Northeast 378 435 19,400 2,710 Climbing Kansas City Center
Tue 06:37:26 PM 36.4764 -95.3981 75° East 397 457 22,300 2,468 Climbing Kansas City Center
Tue 06:38:28 PM 36.5103 -95.2675 72° East 401 461 24,500 2,081 Climbing Kansas City Center
Tue 06:39:30 PM 36.5428 -95.1328 73° East 405 466 26,600 1,824 Climbing Kansas City Center
Tue 06:40:33 PM 36.5742 -95.0058 73° East 408 470 28,300 1,776 Climbing Kansas City Center
Tue 06:41:35 PM 36.6458 -94.8539 60° Northeast 421 484 30,300 1,935 Climbing Kansas City Center
Tue 06:42:37 PM 36.7061 -94.7269 59° Northeast 423 487 32,300 1,935 Climbing Kansas City Center
Tue 06:43:39 PM 36.7633 -94.6044 60° Northeast 418 481 34,300 1,548 Climbing Kansas City Center
Tue 06:44:41 PM 36.8208 -94.4817 60° Northeast 412 474 35,500 1,258 Climbing Kansas City Center
Tue 06:45:43 PM 36.8781 -94.3586 60° Northeast 410 472 36,900 726 Climbing Kansas City Center
Tue 06:46:45 PM 36.9367 -94.2364 59° Northeast 410 472 37,000 48 Climbing Kansas City Center
Tue 06:47:47 PM 36.9933 -94.1131 60° Northeast 409 471 37,000  Level Kansas City Center
Tue 06:48:49 PM 37.0625 -93.9636 60° Northeast 412 474 37,000  Level Kansas City Center
Tue 06:49:51 PM 37.1197 -93.8419 59° Northeast 408 470 37,000  Level Kansas City Center
Tue 06:50:53 PM 37.1858 -93.7283 54° Northeast 408 470 37,000  Level Kansas City Center
Tue 06:51:55 PM 37.2589 -93.6194 50° Northeast 406 467 37,000  Level Kansas City Center
Tue 06:52:57 PM 37.3306 -93.5089 51° Northeast 408 470 37,000  Level Kansas City Center
Tue 06:53:59 PM 37.4014 -93.3975 51° Northeast 407 468 37,000 -677 Level Kansas City Center
Tue 06:55:01 PM 37.4864 -93.2625 52° Northeast 409 471 35,600 -1,984 Descending Kansas City Center
Tue 06:56:03 PM 37.5564 -93.1483 52° Northeast 411 473 32,900 -1,790 Descending Kansas City Center
Tue 06:57:05 PM 37.6267 -93.0369 51° Northeast 407 468 31,900 -968 Descending Kansas City Center
Tue 06:58:07 PM 37.7006 -92.9206 51° Northeast 422 486 30,900 -960 Descending Kansas City Center
Tue 06:59:10 PM 37.7731 -92.8025 52° Northeast 423 487 29,900 -1,008 Descending Kansas City Center
Tue 07:00:12 PM 37.8528 -92.6742 52° Northeast 421 484 28,800 -968 Descending Kansas City Center
Tue 07:01:14 PM 37.9247 -92.5578 52° Northeast 421 484 27,900 -919 Descending Kansas City Center
Tue 07:02:16 PM 37.9967 -92.4397 52° Northeast 423 487 26,900 -968 Descending Kansas City Center
Tue 07:03:18 PM 38.0706 -92.3219 51° Northeast 426 490 25,900 -968 Descending Kansas City Center
Tue 07:04:20 PM 38.1431 -92.2025 52° Northeast 427 491 24,900 -1,016 Descending Kansas City Center
Tue 07:05:22 PM 38.2294 -92.0589 53° Northeast 427 491 23,800 -1,016 Descending Kansas City Center
Tue 07:06:24 PM 38.3019 -91.9389 52° Northeast 426 490 22,800 -871 Descending Kansas City Center
Tue 07:07:26 PM 38.3739 -91.8200 52° Northeast 425 489 22,000 -387 Descending Kansas City Center
Tue 07:08:28 PM 38.4392 -91.6994 55° Northeast 419 482 22,000 -1,016 Level Kansas City Center
Tue 07:09:30 PM 38.4981 -91.5822 57° Northeast 406 467 19,900 -2,468 Descending Kansas City Center
Tue 07:10:32 PM 38.5683 -91.4483 56° Northeast 389 448 16,900 -2,565 Descending Kansas City Center
Tue 07:11:34 PM 38.6239 -91.3397 57° Northeast 378 435 14,600 -2,226 Descending Kansas City Center
Tue 07:12:36 PM 38.6797 -91.2339 56° Northeast 370 426 12,300 -2,032 Descending Kansas City Center
Tue 07:13:38 PM 38.6961 -91.1186 80° East 351 404 10,400 -1,452 Descending Kansas City Center
Tue 07:14:40 PM 38.7331 -91.0192 65° Northeast 322 371 9,300 -1,306 Descending Kansas City Center
Tue 07:15:42 PM 38.7739 -90.9297 60° Northeast 304 350 7,700 -1,403 Descending Kansas City Center
Tue 07:16:44 PM 38.8142 -90.8406 60° Northeast 295 339 6,400 -1,306 Descending Kansas City Center
Tue 07:17:46 PM 38.8647 -90.7419 57° Northeast 284 327 5,000 -677 Descending Kansas City Center
Tue 07:18:48 PM 38.8919 -90.6689 64° Northeast 253 291 5,000 -290 Level Kansas City Center
Tue 07:19:50 PM 38.8658 -90.6053 118° Southeast 218 251 4,400 -774 Descending Kansas City Center
Tue 07:20:52 PM 38.8353 -90.5453 123° Southeast 205 236 3,400 -968 Descending Kansas City Center
Tue 07:21:54 PM 38.8069 -90.4867 122° Southeast 199 229 2,400 -864 Descending Kansas City Center
Tue 07:22:57 PM 38.7831 -90.4397 123° Southeast 175 201 1,600 -672 Descending Kansas City Center
Tue 07:23:59 PM 38.7664 -90.4033 120° Southeast 141 162 1,000 -532 Descending Kansas City Center
Tue 07:25:01 PM 38.7461 -90.3614 122° Southeast 130 150 500 -484 Descending Kansas City Center

Login

Don't have an account? Register now (free) for customized features, flight alerts, and more!